Location: S�tio Afonso Gruber
(26.1760°S, 49.5250°W)
Time: 00:47:51
(UTC+00:00)

Intelsat 5-3 Rocket - Pass Details

Date: 02 October 2020
Orbit: 281 x 6111 km, 23.6° (Epoch: 22 October)

Event Time Altitude Azimuth Distance (km) Brightness Sun altitude
Exits shadow 03:36:14 57° 81° (E) 5,209 6.9 -59.3°
Drops below altitude 10° 04:05:41 10° 86° (E) 9,685 8.7 -56.9°
Sets 04:14:27 0° 86° (E) 10,680 9.0 -56.0°
